Location: Unspecified
(48.1170°N, 0.0000°E)
Time: 11:36:54
(UTC+00:00)

JY1SAT - Pass Details

Date: 21 September 2019
Orbit: 572 x 591 km, 97.7° (Epoch: 16 October)

Event Time Altitude Azimuth Distance (km) Brightness Sun altitude
Exits shadow 22:33:30 10° 327° (NNW) 1,864 ? -38.4°
Drops below altitude 10° 22:33:35 10° 327° (NNW) 1,895 ? -38.4°
Sets 22:35:57 0° 338° (NNW) 2,802 ? -38.6°
